This is the latest recevied weather packets stored in our database for station/object N4DBJ. If no packets are shown the sender has not sent any weather packets the latest 10 day(s).
| Time | Temp. | Humidity | Pressure | Rain* | Wind** | Luminosity | Snow |
|---|---|---|---|---|---|---|---|
| 1778000651 | 20.56° C | 70% | 1008.2 hPa | 0 mm | - | 346 W/m² | - |
| 1778000347 | 20.56° C | 72% | 1008.4 hPa | 0 mm | - | 308 W/m² | - |
| 1778000043 | 20° C | 71% | 1008.4 hPa | 0 mm | - | 235 W/m² | - |
| 1777999738 | 20° C | 70% | 1008.6 hPa | 0 mm | - | 209 W/m² | - |
| 1777999435 | 20° C | 69% | 1008.7 hPa | 0 mm | - | 212 W/m² | - |
| 1777999133 | 20° C | 72% | 1008.9 hPa | 0 mm | - | 180 W/m² | - |
| 1777998832 | 20° C | 71% | 1009.2 hPa | 0 mm | - | 175 W/m² | - |
| 1777998530 | 20° C | 70% | 1009.2 hPa | 0 mm | - | 158 W/m² | - |
| 1777998226 | 20° C | 69% | 1009.5 hPa | 0 mm | - | 141 W/m² | - |
| 1777997923 | 20.56° C | 70% | 1009.4 hPa | 0 mm | - | 174 W/m² | - |
| 1777997620 | 20.56° C | 70% | 1009.4 hPa | 0 mm | - | 206 W/m² | - |
| 1777997317 | 20.56° C | 70% | 1009.2 hPa | 0 mm | - | 231 W/m² | - |
| 1777997015 | 20.56° C | 71% | 1009.6 hPa | 0 mm | - | 249 W/m² | - |
| 1777996712 | 20.56° C | 69% | 1009.7 hPa | 0 mm | - | 251 W/m² | - |
| 1777996407 | 20° C | 70% | 1009.8 hPa | 0 mm | - | 293 W/m² | - |
| 1777996104 | 20° C | 70% | 1010 hPa | 0 mm | - | 273 W/m² | - |
| 1777995801 | 20° C | 71% | 1010.2 hPa | 0 mm | - | 214 W/m² | - |
| 1777995497 | 20° C | 72% | 1010 hPa | 0 mm | - | 249 W/m² | - |
| 1777995194 | 20° C | 70% | 1010 hPa | 0 mm | - | 267 W/m² | - |
| 1777994891 | 20° C | 71% | 1009.8 hPa | 0 mm | - | 260 W/m² | - |
| 1777994588 | 20° C | 71% | 1009.7 hPa | 0 mm | - | 280 W/m² | - |
| 1777994282 | 20° C | 70% | 1009.7 hPa | 0 mm | - | 253 W/m² | - |
| 1777993980 | 20° C | 71% | 1009.6 hPa | 0 mm | - | 251 W/m² | - |
| 1777993676 | 20° C | 71% | 1009.5 hPa | 0 mm | - | 273 W/m² | - |
| 1777993374 | 20° C | 71% | 1009.3 hPa | 0 mm | - | 296 W/m² | - |
* Rain latest hour (hover to see other rain measurements)
** Current wind speed in m/s (hover to see current wind gust speed)